Orbital Elements at Epoch 2459000.5 (2020-May-31.0) TDB
Reference: JPL 11 (heliocentric ecliptic J2000)
Element | Value | Uncertainty (1-sigma) | Units |
e | .2241741551844002 | 6.4235e-08 | |
a | 2.376661366779059 | 1.1142e-08 | au |
q | 1.843875312721962 | 1.5819e-07 | au |
i | 3.467354561269618 | 4.9001e-06 | deg |
node | 67.08668572323216 | 0.00010349 | deg |
peri | 314.8708695948729 | 0.00010493 | deg |
M | 27.55816938473755 | 1.8543e-05 | deg |
tp | 2458898.053470371124 (2020-Feb-18.55347037) | 6.8413e-05 | TDB |
period | 1338.287393168466 3.66 | 9.4109e-06 2.577e-08 | d yr |
n | .269000516509149 | 1.8916e-09 | deg/d |
Q | 2.909447420836156 | 1.364e-08 | au |
|
| | Orbit Determination Parameters
Additional Information
|